START_TIME,STEP,MOV.,M15,t_acc.,M20,t_acc.
1979-08-07 06:00:42.410 ,0,1,0.,24.0,0.,24.0
1979-08-07 06:01:06.410 ,4,1,0.,24.0,0.,24.0
1979-08-07 06:01:30.410 ,7,1,0.,24.0,0.,24.0
1979-08-07 06:01:54.410 ,3,1,0.,24.0,0.,24.0
1979-08-07 06:02:18.410 ,0,1,0.,24.0,0.,24.0
1979-08-07 06:02:42.410 ,4,1,0.,24.0,0.,24.0
1979-08-07 06:03:06.410 ,7,1,0.,24.0,0.,24.0
1979-08-07 06:03:30.410 ,3,1,0.,24.0,0.,24.0
1979-08-07 06:03:54.410 ,0,1,0.,24.0,0.,24.0
1979-08-07 06:04:18.410 ,4,1,0.,24.0,0.,24.0
1979-08-07 06:04:42.410 ,7,1,0.,24.0,0.,24.0
1979-08-07 06:05:06.410 ,3,1,0.,24.0,0.,24.0
1979-08-07 06:05:30.410 ,0,1,0.,24.0,0.,24.0
1979-08-07 06:05:54.410 ,0,0,0.,24.0,0.,24.0
1979-08-07 06:06:18.410 ,0,0,0.,24.0,0.,24.0
1979-08-07 06:06:42.410 ,5,1,0.,24.0,0.,24.0
1979-08-07 06:07:06.410 ,5,0,0.,24.0,0.,24.0
1979-08-07 06:07:30.410 ,4,1,0.,24.0,0.,24.0
1979-08-07 06:07:54.410 ,4,0,0.,24.0,0.,24.0
1979-08-07 06:08:18.410 ,3,1,0.,24.0,0.,24.0
1979-08-07 06:08:42.410 ,3,0,0.,24.0,0.,24.0
1979-08-07 06:09:06.410 ,2,1,0.,24.0,0.,24.0
1979-08-07 06:09:30.410 ,2,0,0.,24.0,0.,24.0
1979-08-07 06:09:54.410 ,1,1,0.,24.0,0.,24.0
1979-08-07 06:10:18.410 ,1,0,0.,24.0,0.,24.0
1979-08-07 06:10:42.410 ,0,1,0.,24.0,0.,24.0
1979-08-07 06:11:06.410 ,0,0,0.,24.0,0.,24.0
1979-08-07 06:11:30.410 ,0,1,0.,24.0,0.,24.0
1979-08-07 06:11:54.410 ,0,0,0.,24.0,0.,24.0
1979-08-07 06:12:18.410 ,1,1,0.,24.0,0.,24.0
1979-08-07 06:12:42.410 ,1,0,0.,24.0,0.,24.0
1979-08-07 06:13:06.410 ,2,1,0.,24.0,0.,24.0
1979-08-07 06:13:30.410 ,2,0,0.,24.0,0.,24.0
1979-08-07 06:13:54.410 ,3,1,0.,24.0,0.,24.0
1979-08-07 06:14:18.410 ,3,0,0.,24.0,0.,24.0
1979-08-07 06:14:42.410 ,4,1,0.,24.0,0.,24.0
1979-08-07 06:15:06.410 ,4,0,0.,24.0,0.,24.0
1979-08-07 06:15:30.410 ,5,1,0.,24.0,0.,24.0
1979-08-07 06:15:54.410 ,5,0,0.,24.0,0.,24.0
1979-08-07 06:16:18.410 ,6,1,0.,24.0,0.,24.0
1979-08-07 06:16:42.410 ,6,0,0.,24.0,0.,24.0
1979-08-07 06:17:06.410 ,7,1,0.,24.0,0.,24.0
1979-08-07 06:17:30.410 ,7,0,0.,24.0,0.,24.0
1979-08-07 06:17:54.410 ,7,1,0.,24.0,0.,24.0
1979-08-07 06:18:18.410 ,7,0,0.,24.0,0.,24.0
1979-08-07 06:18:42.410 ,6,1,0.,24.0,0.,24.0
1979-08-07 06:19:06.410 ,6,0,0.,24.0,0.,24.0
1979-08-07 06:19:30.410 ,5,1,0.,24.0,0.,24.0
1979-08-07 06:19:54.410 ,5,0,0.,24.0,0.,24.0
1979-08-07 06:20:18.410 ,4,1,0.,24.0,0.,24.0
1979-08-07 06:20:42.410 ,4,0,0.,24.0,0.,24.0
1979-08-07 06:21:06.410 ,3,1,0.,24.0,0.,24.0
1979-08-07 06:21:30.410 ,3,0,0.,24.0,0.,24.0
1979-08-07 06:21:54.410 ,2,1,0.,24.0,0.,24.0
1979-08-07 06:22:18.410 ,2,0,0.,24.0,0.,24.0
1979-08-07 06:22:42.410 ,1,1,0.,24.0,0.,24.0
1979-08-07 06:23:06.410 ,1,0,0.,24.0,0.,24.0
1979-08-07 06:23:30.410 ,0,1,0.,24.0,0.,24.0
1979-08-07 06:23:54.410 ,0,0,0.,24.0,0.,24.0
1979-08-07 06:24:18.410 ,0,1,0.,24.0,0.,24.0
1979-08-07 06:24:42.410 ,0,0,0.,24.0,0.,24.0
1979-08-07 06:25:06.410 ,1,1,0.,24.0,0.,24.0
1979-08-07 06:25:30.410 ,1,0,0.,24.0,0.,24.0
1979-08-07 06:25:54.410 ,2,1,0.,24.0,0.,24.0
1979-08-07 06:26:18.410 ,2,0,0.,24.0,0.,24.0
1979-08-07 06:26:42.410 ,3,1,0.,24.0,0.,24.0
1979-08-07 06:27:06.410 ,3,0,0.,24.0,0.,24.0
1979-08-07 06:27:30.410 ,4,1,0.,24.0,0.,24.0
1979-08-07 06:27:54.410 ,4,0,0.,24.0,0.,24.0
1979-08-07 06:28:18.410 ,5,1,0.,24.0,0.,24.0
1979-08-07 06:28:42.410 ,5,0,0.,24.0,0.,24.0
1979-08-07 06:29:06.410 ,6,1,0.,24.0,0.,24.0
1979-08-07 06:29:30.410 ,6,0,0.,24.0,0.,24.0
1979-08-07 06:29:54.410 ,7,1,0.,24.0,0.,24.0
1979-08-07 06:30:18.410 ,7,0,0.,24.0,0.,24.0
1979-08-07 06:30:42.410 ,7,1,0.,24.0,0.,24.0
1979-08-07 06:31:06.410 ,7,0,0.,24.0,0.,24.0
1979-08-07 06:31:30.410 ,6,1,0.,24.0,0.,24.0
1979-08-07 06:31:54.410 ,6,0,0.,24.0,0.,24.0
1979-08-07 06:32:18.410 ,5,1,0.,24.0,0.,24.0
1979-08-07 06:32:42.410 ,5,0,0.,24.0,0.,24.0
1979-08-07 06:33:06.410 ,4,1,0.,24.0,0.,24.0
1979-08-07 06:33:30.410 ,4,0,0.,24.0,0.,24.0
1979-08-07 06:33:54.410 ,3,1,0.,24.0,0.,24.0
1979-08-07 06:34:18.410 ,3,0,0.,24.0,0.,24.0
1979-08-07 06:34:42.410 ,2,1,0.,24.0,0.,24.0
1979-08-07 06:35:06.410 ,2,0,0.,24.0,0.,24.0
1979-08-07 06:35:30.410 ,1,1,0.,24.0,0.,24.0
1979-08-07 06:35:54.410 ,1,0,0.,24.0,0.,24.0
1979-08-07 06:36:18.410 ,0,1,0.,24.0,0.,24.0
1979-08-07 06:36:42.410 ,0,0,0.,24.0,0.,24.0
1979-08-07 06:37:06.410 ,0,1,0.,24.0,0.,24.0
1979-08-07 06:37:30.410 ,0,0,0.,24.0,0.,24.0
1979-08-07 06:37:54.410 ,1,1,0.,24.0,0.,24.0
1979-08-07 06:38:18.410 ,1,0,0.,24.0,0.,24.0
1979-08-07 06:38:42.410 ,2,1,0.,24.0,0.,24.0
1979-08-07 06:39:06.410 ,2,0,0.,24.0,0.,24.0
1979-08-07 06:39:30.410 ,3,1,0.,24.0,0.,24.0
1979-08-07 06:39:54.410 ,3,0,0.,24.0,0.,24.0
1979-08-07 06:40:18.410 ,4,1,0.,24.0,0.,24.0
1979-08-07 06:40:42.410 ,4,0,0.,24.0,0.,24.0
1979-08-07 06:41:06.410 ,5,1,0.,24.0,0.,24.0
1979-08-07 06:41:30.410 ,5,0,0.,24.0,0.,24.0
1979-08-07 06:41:54.410 ,6,1,0.,24.0,0.,24.0
1979-08-07 06:42:18.410 ,0,0,0.,24.0,0.,24.0
1979-08-07 06:42:52.610 ,7,0,0.,24.0,0.,24.0
1979-08-07 06:43:06.410 ,7,0,0.,24.0,0.,24.0
1979-08-07 06:43:30.410 ,3,1,0.,24.0,0.,24.0
1979-08-07 06:43:54.410 ,0,1,0.,24.0,0.,24.0
1979-08-07 06:44:18.410 ,4,1,0.,24.0,0.,24.0
1979-08-07 06:44:42.410 ,7,1,0.,24.0,0.,24.0
1979-08-07 06:45:06.410 ,3,1,0.,24.0,0.,24.0
1979-08-07 06:45:30.410 ,0,1,0.,24.0,0.,24.0
1979-08-07 06:45:54.410 ,4,1,0.,24.0,0.,24.0
1979-08-07 06:46:18.410 ,7,1,0.,24.0,0.,24.0
1979-08-07 06:46:42.410 ,3,1,0.,24.0,0.,24.0
1979-08-07 06:47:06.410 ,0,1,0.,24.0,0.,24.0
1979-08-07 06:47:30.410 ,4,1,0.,24.0,0.,24.0
1979-08-07 06:47:54.410 ,7,1,0.,24.0,0.,24.0
1979-08-07 06:48:18.410 ,3,1,0.,24.0,0.,24.0
1979-08-07 06:48:42.410 ,0,1,0.,24.0,0.,24.0
1979-08-07 06:49:06.410 ,4,1,0.,24.0,0.,24.0
1979-08-07 06:49:30.410 ,7,1,0.,24.0,0.,24.0
1979-08-07 06:49:54.410 ,3,1,0.,24.0,0.,24.0
1979-08-07 06:50:18.410 ,0,1,0.,24.0,0.,24.0
1979-08-07 06:50:42.410 ,4,1,0.,24.0,0.,24.0
1979-08-07 06:51:06.410 ,7,1,0.,24.0,0.,24.0
1979-08-07 06:51:30.410 ,3,1,0.,24.0,0.,24.0
1979-08-07 06:51:54.410 ,0,1,0.,24.0,0.,24.0
1979-08-07 06:52:18.410 ,4,1,0.,24.0,0.,24.0
1979-08-07 06:52:42.410 ,7,1,0.,24.0,0.,24.0
1979-08-07 06:53:06.410 ,3,1,0.,24.0,0.,24.0
1979-08-07 06:53:30.410 ,0,1,0.,24.0,0.,24.0
1979-08-07 06:53:54.410 ,0,0,0.,24.0,0.,24.0
1979-08-07 06:54:18.410 ,0,0,0.,24.0,0.,24.0
1979-08-07 06:54:42.410 ,5,1,0.,24.0,0.,24.0
1979-08-07 06:55:06.410 ,5,0,0.,24.0,0.,24.0
1979-08-07 06:55:30.410 ,4,1,0.,24.0,0.,24.0
1979-08-07 06:55:54.410 ,4,0,0.,24.0,0.,24.0
1979-08-07 06:56:18.410 ,3,1,0.,24.0,0.,24.0
1979-08-07 06:56:42.410 ,3,0,0.,24.0,0.,24.0
1979-08-07 06:57:06.410 ,2,1,0.,24.0,0.,24.0
1979-08-07 06:57:30.410 ,2,0,0.,24.0,0.,24.0
1979-08-07 06:57:54.410 ,1,1,0.,24.0,0.,24.0
1979-08-07 06:58:18.410 ,1,0,0.,24.0,0.,24.0
1979-08-07 06:58:42.410 ,0,1,0.,24.0,0.,24.0
1979-08-07 06:59:06.410 ,0,0,0.,24.0,0.,24.0
1979-08-07 06:59:30.410 ,0,1,0.,24.0,0.,24.0
1979-08-07 06:59:54.410 ,0,0,0.,24.0,0.,24.0
1979-08-07 07:00:18.410 ,1,1,0.,24.0,0.,24.0
1979-08-07 07:00:42.410 ,1,0,0.,24.0,0.,24.0
1979-08-07 07:01:06.410 ,2,1,0.,24.0,0.,24.0
1979-08-07 07:01:30.410 ,2,0,0.,24.0,0.,24.0
1979-08-07 07:01:54.410 ,3,1,0.,24.0,0.,24.0
1979-08-07 07:02:18.410 ,3,0,0.,24.0,0.,24.0
1979-08-07 07:02:42.410 ,4,1,0.,24.0,0.,24.0
1979-08-07 07:03:06.410 ,4,0,0.,24.0,0.,24.0
1979-08-07 07:03:30.410 ,5,1,0.,24.0,0.,24.0
1979-08-07 07:03:54.410 ,5,0,0.,24.0,0.,24.0
1979-08-07 07:04:18.410 ,6,1,0.,24.0,0.,24.0
1979-08-07 07:04:42.410 ,6,0,0.,24.0,0.,24.0
1979-08-07 07:05:06.410 ,7,1,0.,24.0,0.,24.0
1979-08-07 07:05:30.410 ,7,0,0.,24.0,0.,24.0
1979-08-07 07:05:54.410 ,7,1,0.,24.0,0.,24.0
1979-08-07 07:06:18.410 ,7,0,0.,24.0,0.,24.0
1979-08-07 07:06:42.410 ,6,1,0.,24.0,0.,24.0
1979-08-07 07:07:06.410 ,6,0,0.,24.0,0.,24.0
1979-08-07 07:07:30.410 ,5,1,0.,24.0,0.,24.0
1979-08-07 07:07:54.410 ,5,0,0.,24.0,0.,24.0
1979-08-07 07:08:18.410 ,4,1,0.,24.0,0.,24.0
1979-08-07 07:08:42.410 ,4,0,0.,24.0,0.,24.0
1979-08-07 07:09:06.410 ,3,1,0.,24.0,0.,24.0
1979-08-07 07:09:30.410 ,3,0,0.,24.0,0.,24.0
1979-08-07 07:09:54.410 ,2,1,0.,24.0,0.,24.0
1979-08-07 07:10:18.410 ,2,0,0.,24.0,0.,24.0
1979-08-07 07:10:42.410 ,1,1,0.,24.0,0.,24.0
1979-08-07 07:11:06.410 ,1,0,0.,24.0,0.,24.0
1979-08-07 07:11:30.410 ,0,1,0.,24.0,0.,24.0
1979-08-07 07:11:54.410 ,0,0,0.,24.0,0.,24.0
1979-08-07 07:12:18.410 ,0,1,0.,24.0,0.,24.0
1979-08-07 07:12:42.410 ,0,0,0.,24.0,0.,24.0
1979-08-07 07:13:06.410 ,1,1,0.,24.0,0.,24.0
1979-08-07 07:13:30.410 ,1,0,0.,24.0,0.,24.0
1979-08-07 07:13:54.410 ,2,1,0.,24.0,0.,24.0
1979-08-07 07:14:18.410 ,2,0,0.,24.0,0.,24.0
1979-08-07 07:14:42.410 ,3,1,0.,24.0,0.,24.0
1979-08-07 07:15:06.410 ,3,0,0.,24.0,0.,24.0
1979-08-07 07:15:30.410 ,4,1,0.,24.0,0.,24.0
1979-08-07 07:15:54.410 ,4,0,0.,24.0,0.,24.0
1979-08-07 07:16:18.410 ,5,1,0.,24.0,0.,24.0
1979-08-07 07:16:42.410 ,5,0,0.,24.0,0.,24.0
1979-08-07 07:17:06.410 ,6,1,0.,24.0,0.,24.0
1979-08-07 07:17:30.410 ,6,0,0.,24.0,0.,24.0
1979-08-07 07:17:54.410 ,7,1,0.,24.0,0.,24.0
1979-08-07 07:18:18.410 ,7,0,0.,24.0,0.,24.0
1979-08-07 07:18:42.410 ,7,1,0.,24.0,0.,24.0
1979-08-07 07:19:06.410 ,7,0,0.,24.0,0.,24.0
1979-08-07 07:19:30.410 ,6,1,0.,24.0,0.,24.0
1979-08-07 07:19:54.410 ,6,0,0.,24.0,0.,24.0
1979-08-07 07:20:18.410 ,5,1,0.,24.0,0.,24.0
1979-08-07 07:20:42.410 ,5,0,0.,24.0,0.,24.0
1979-08-07 07:21:06.410 ,4,1,0.,24.0,0.,24.0
1979-08-07 07:21:30.410 ,4,0,0.,24.0,0.,24.0
1979-08-07 07:21:54.410 ,3,1,0.,24.0,0.,24.0
1979-08-07 07:22:18.410 ,3,0,0.,24.0,0.,24.0
1979-08-07 07:22:42.410 ,2,1,0.,24.0,0.,24.0
1979-08-07 07:23:06.410 ,2,0,0.,24.0,0.,24.0
1979-08-07 07:23:30.410 ,1,1,0.,24.0,0.,24.0
1979-08-07 07:23:54.410 ,1,0,0.,24.0,0.,24.0
1979-08-07 07:24:18.410 ,0,1,0.,24.0,0.,24.0
1979-08-07 07:24:42.410 ,0,0,0.,24.0,0.,24.0
1979-08-07 07:25:06.410 ,0,1,0.,24.0,0.,24.0
1979-08-07 07:25:30.410 ,0,0,0.,24.0,0.,24.0
1979-08-07 07:25:54.410 ,1,1,0.,24.0,0.,24.0
1979-08-07 07:26:18.410 ,1,0,0.,24.0,0.,24.0
1979-08-07 07:26:42.410 ,2,1,0.,24.0,0.,24.0
1979-08-07 07:27:06.410 ,2,0,0.,24.0,0.,24.0
1979-08-07 07:27:30.410 ,3,1,0.,24.0,0.,24.0
1979-08-07 07:27:54.410 ,3,0,0.,24.0,0.,24.0
1979-08-07 07:28:18.410 ,4,1,0.,24.0,0.,24.0
1979-08-07 07:28:42.410 ,4,0,0.,24.0,0.,24.0
1979-08-07 07:29:06.410 ,5,1,0.,24.0,0.,24.0
1979-08-07 07:29:30.410 ,5,0,0.,24.0,0.,24.0
1979-08-07 07:29:54.410 ,6,1,0.,24.0,0.,24.0
1979-08-07 07:30:18.410 ,6,0,0.,24.0,0.,24.0
1979-08-07 07:30:42.410 ,7,0,0.,24.0,0.,24.0
1979-08-07 07:31:06.410 ,7,0,0.,24.0,0.,24.0
1979-08-07 07:31:30.410 ,3,1,0.,24.0,0.,24.0
1979-08-07 07:31:54.410 ,0,1,0.,24.0,0.,24.0
1979-08-07 07:32:18.410 ,4,1,0.,24.0,0.,24.0
1979-08-07 07:32:42.410 ,7,1,0.,24.0,0.,24.0
1979-08-07 07:33:06.410 ,3,1,0.,24.0,0.,24.0
1979-08-07 07:33:30.410 ,0,1,0.,24.0,0.,24.0
1979-08-07 07:33:54.410 ,4,1,0.,24.0,0.,24.0
1979-08-07 07:34:18.410 ,7,1,0.,24.0,0.,24.0
1979-08-07 07:34:42.410 ,3,1,0.,24.0,0.,24.0
1979-08-07 07:35:06.410 ,0,1,0.,24.0,0.,24.0
1979-08-07 07:35:30.410 ,4,1,0.,24.0,0.,24.0
1979-08-07 07:35:54.410 ,7,1,0.,24.0,0.,24.0
1979-08-07 07:36:18.410 ,3,1,0.,24.0,0.,24.0
1979-08-07 07:36:42.410 ,0,1,0.,24.0,0.,24.0
1979-08-07 07:37:06.410 ,4,1,0.,24.0,0.,24.0
1979-08-07 07:37:30.410 ,7,1,0.,24.0,0.,24.0
1979-08-07 07:37:54.410 ,3,1,0.,24.0,0.,24.0
1979-08-07 07:38:18.410 ,0,1,0.,24.0,0.,24.0
1979-08-07 07:38:42.410 ,4,1,0.,24.0,0.,24.0
1979-08-07 07:39:06.410 ,7,1,0.,24.0,0.,24.0
1979-08-07 07:39:30.410 ,3,1,0.,24.0,0.,24.0
1979-08-07 07:39:54.410 ,0,1,0.,24.0,0.,24.0
1979-08-07 07:40:18.410 ,4,1,0.,24.0,0.,24.0
1979-08-07 07:40:42.410 ,7,1,0.,24.0,0.,24.0
1979-08-07 07:41:06.410 ,3,1,0.,24.0,0.,24.0
1979-08-07 07:41:30.410 ,0,1,0.,24.0,0.,24.0
1979-08-07 07:41:54.410 ,0,0,0.,24.0,0.,24.0
1979-08-07 07:42:18.410 ,0,0,0.,24.0,0.,24.0
1979-08-07 07:42:42.410 ,5,1,0.,24.0,0.,24.0
1979-08-07 07:43:06.410 ,5,0,0.,24.0,0.,24.0
1979-08-07 07:43:30.410 ,4,1,0.,24.0,0.,24.0
1979-08-07 07:43:54.410 ,4,0,0.,24.0,0.,24.0
1979-08-07 07:44:18.410 ,3,1,0.,24.0,0.,24.0
1979-08-07 07:44:42.410 ,3,0,0.,24.0,0.,24.0
1979-08-07 07:45:06.410 ,2,1,0.,24.0,0.,24.0
1979-08-07 07:45:30.410 ,2,0,0.,24.0,0.,24.0
1979-08-07 07:45:54.410 ,1,1,0.,24.0,0.,24.0
1979-08-07 07:46:18.410 ,1,0,0.,24.0,0.,24.0
1979-08-07 07:46:42.410 ,0,1,0.,24.0,0.,24.0
1979-08-07 07:47:06.410 ,0,0,0.,24.0,0.,24.0
1979-08-07 07:47:30.410 ,0,1,0.,24.0,0.,24.0
1979-08-07 07:47:54.410 ,0,0,0.,24.0,0.,24.0
1979-08-07 07:48:18.410 ,1,1,0.,24.0,0.,24.0
1979-08-07 07:48:42.410 ,1,0,0.,24.0,0.,24.0
1979-08-07 07:49:06.410 ,2,1,0.,24.0,0.,24.0
1979-08-07 07:49:30.410 ,2,0,0.,24.0,0.,24.0
1979-08-07 07:49:54.410 ,3,1,0.,24.0,0.,24.0
1979-08-07 07:50:18.410 ,3,0,0.,24.0,0.,24.0
1979-08-07 07:50:42.410 ,4,1,0.,24.0,0.,24.0
1979-08-07 07:51:06.410 ,4,0,0.,24.0,0.,24.0
1979-08-07 07:51:30.410 ,5,1,0.,24.0,0.,24.0
1979-08-07 07:51:54.410 ,5,0,0.,24.0,0.,24.0
1979-08-07 07:52:18.410 ,6,1,0.,24.0,0.,24.0
1979-08-07 07:52:42.410 ,6,0,0.,24.0,0.,24.0
1979-08-07 07:53:06.410 ,7,1,0.,24.0,0.,24.0
1979-08-07 07:53:30.410 ,7,0,0.,24.0,0.,24.0
1979-08-07 07:53:54.410 ,7,1,0.,24.0,0.,24.0
1979-08-07 07:54:18.410 ,7,0,0.,24.0,0.,24.0
1979-08-07 07:54:42.410 ,6,1,0.,24.0,0.,24.0
1979-08-07 07:55:06.410 ,6,0,0.,24.0,0.,24.0
1979-08-07 07:56:18.410 ,0,0,0.,24.0,0.,24.0
1979-08-07 07:56:42.410 ,0,0,0.,24.0,0.,24.0
1979-08-07 07:57:06.410 ,3,1,0.,24.0,0.,24.0
1979-08-07 07:57:30.410 ,3,0,0.,24.0,0.,24.0
1979-08-07 07:57:54.410 ,2,1,0.,24.0,0.,24.0
1979-08-07 07:58:18.410 ,2,0,0.,24.0,0.,24.0
1979-08-07 07:58:42.400 ,1,1,0.,24.0,0.,24.0
1979-08-07 07:59:06.400 ,1,0,0.,24.0,0.,24.0
1979-08-07 07:59:30.400 ,0,1,0.,24.0,0.,24.0
1979-08-07 07:59:54.400 ,0,0,0.,24.0,0.,24.0
1979-08-07 08:00:18.400 ,0,1,0.,24.0,0.,24.0
1979-08-07 08:00:42.410 ,0,0,0.,24.0,0.,24.0
1979-08-07 08:01:06.410 ,1,1,0.,24.0,0.,24.0
1979-08-07 08:01:30.410 ,1,0,0.,24.0,0.,24.0
1979-08-07 08:01:54.410 ,2,1,0.,24.0,0.,24.0
1979-08-07 08:02:18.410 ,2,0,0.,24.0,0.,24.0
1979-08-07 08:02:42.410 ,3,1,0.,24.0,0.,24.0
1979-08-07 08:03:06.410 ,3,0,0.,24.0,0.,24.0
1979-08-07 08:03:30.410 ,4,1,0.,24.0,0.,24.0
1979-08-07 08:03:54.410 ,4,0,0.,24.0,0.,24.0
1979-08-07 08:04:18.400 ,5,1,0.,24.0,0.,24.0
1979-08-07 08:04:42.410 ,5,0,0.,24.0,0.,24.0
1979-08-07 08:05:06.400 ,6,1,0.,24.0,0.,24.0
1979-08-07 08:05:30.410 ,6,0,0.,24.0,0.,24.0
1979-08-07 08:05:54.410 ,7,1,0.,24.0,0.,24.0
1979-08-07 08:06:18.400 ,7,0,0.,24.0,0.,24.0
1979-08-07 08:06:42.410 ,7,1,0.,24.0,0.,24.0
1979-08-07 08:07:06.400 ,7,0,0.,24.0,0.,24.0
1979-08-07 08:07:30.410 ,6,1,0.,24.0,0.,24.0
1979-08-07 08:07:54.410 ,6,0,0.,24.0,0.,24.0
1979-08-07 08:08:18.400 ,5,1,0.,24.0,0.,24.0
1979-08-07 08:08:42.410 ,5,0,0.,24.0,0.,24.0
1979-08-07 08:09:06.410 ,4,1,0.,24.0,0.,24.0
1979-08-07 08:09:30.410 ,4,0,0.,24.0,0.,24.0
1979-08-07 08:09:54.410 ,3,1,0.,24.0,0.,24.0
1979-08-07 08:10:18.410 ,3,0,0.,24.0,0.,24.0
1979-08-07 08:10:42.410 ,2,1,0.,24.0,0.,24.0
1979-08-07 08:11:06.410 ,2,0,0.,24.0,0.,24.0
1979-08-07 08:11:30.410 ,1,1,0.,24.0,0.,24.0
1979-08-07 08:11:54.410 ,1,0,0.,24.0,0.,24.0
1979-08-07 08:12:18.410 ,0,1,0.,24.0,0.,24.0
1979-08-07 08:12:42.410 ,0,0,0.,24.0,0.,24.0
1979-08-07 08:13:06.410 ,0,1,0.,24.0,0.,24.0
1979-08-07 08:13:30.410 ,0,0,0.,24.0,0.,24.0
1979-08-07 08:13:54.410 ,1,1,0.,24.0,0.,24.0
1979-08-07 08:14:18.410 ,1,0,0.,24.0,0.,24.0
1979-08-07 08:14:42.410 ,2,1,0.,24.0,0.,24.0
1979-08-07 08:15:06.410 ,2,0,0.,24.0,0.,24.0
1979-08-07 08:15:30.410 ,3,1,0.,24.0,0.,24.0
1979-08-07 08:15:54.410 ,3,0,0.,24.0,0.,24.0
1979-08-07 08:16:18.410 ,4,1,0.,24.0,0.,24.0
1979-08-07 08:16:42.410 ,4,0,0.,24.0,0.,24.0
1979-08-07 08:17:06.410 ,5,1,0.,24.0,0.,24.0
1979-08-07 08:17:30.410 ,5,0,0.,24.0,0.,24.0
1979-08-07 08:17:54.410 ,6,1,0.,24.0,0.,24.0
1979-08-07 08:18:18.410 ,6,0,0.,24.0,0.,24.0
1979-08-07 08:18:42.400 ,7,0,0.,24.0,0.,24.0
1979-08-07 08:19:06.400 ,7,0,0.,24.0,0.,24.0
1979-08-07 08:19:30.400 ,3,1,0.,24.0,0.,24.0
1979-08-07 08:19:54.400 ,0,1,0.,24.0,0.,24.0
1979-08-07 08:20:18.400 ,4,1,0.,24.0,0.,24.0
1979-08-07 08:20:42.400 ,7,1,0.,24.0,0.,24.0
1979-08-07 08:21:06.400 ,3,1,0.,24.0,0.,24.0
1979-08-07 08:21:30.400 ,0,1,0.,24.0,0.,24.0
1979-08-07 08:21:54.400 ,4,1,0.,24.0,0.,24.0
1979-08-07 08:22:18.400 ,7,1,0.,24.0,0.,24.0
1979-08-07 08:22:42.400 ,3,1,0.,24.0,0.,24.0
1979-08-07 08:23:06.400 ,0,1,0.,24.0,0.,24.0
1979-08-07 08:23:30.400 ,4,1,0.,24.0,0.,24.0
1979-08-07 08:23:54.400 ,7,1,0.,24.0,0.,24.0
1979-08-07 08:24:18.400 ,3,1,0.,24.0,0.,24.0
1979-08-07 08:24:42.400 ,0,1,0.,24.0,0.,24.0
1979-08-07 08:25:06.400 ,4,1,0.,24.0,0.,24.0
1979-08-07 08:25:30.400 ,7,1,0.,24.0,0.,24.0
1979-08-07 08:25:54.400 ,3,1,0.,24.0,0.,24.0
1979-08-07 08:26:18.400 ,0,1,0.,24.0,0.,24.0
1979-08-07 08:26:42.400 ,4,1,0.,24.0,0.,24.0
1979-08-07 08:27:06.400 ,7,1,0.,24.0,0.,24.0
1979-08-07 08:27:30.400 ,3,1,0.,24.0,0.,24.0
1979-08-07 08:27:54.400 ,0,1,0.,24.0,0.,24.0
1979-08-07 08:28:18.400 ,4,1,0.,24.0,0.,24.0
1979-08-07 08:28:42.400 ,7,1,0.,24.0,0.,24.0
1979-08-07 08:29:06.400 ,3,1,0.,24.0,0.,24.0
1979-08-07 08:29:30.400 ,0,1,0.,24.0,0.,24.0
1979-08-07 08:29:54.400 ,0,0,0.,24.0,0.,24.0
1979-08-07 08:30:18.400 ,0,0,0.,24.0,0.,24.0
1979-08-07 08:30:42.400 ,5,1,0.,24.0,0.,24.0
1979-08-07 08:31:06.400 ,5,0,0.,24.0,0.,24.0
1979-08-07 08:31:30.400 ,4,1,0.,24.0,0.,24.0
1979-08-07 08:31:54.400 ,4,0,0.,24.0,0.,24.0
1979-08-07 08:32:18.400 ,3,1,1.,24.0,0.,24.0
1979-08-07 08:32:42.400 ,3,0,0.,24.0,0.,24.0
1979-08-07 08:33:06.400 ,2,1,0.,24.0,0.,24.0
1979-08-07 08:33:30.400 ,2,0,0.,24.0,0.,24.0
1979-08-07 08:33:54.400 ,1,1,0.,24.0,0.,24.0
1979-08-07 08:34:18.400 ,1,0,0.,24.0,0.,24.0
1979-08-07 08:34:42.400 ,0,1,0.,24.0,0.,24.0
1979-08-07 08:35:06.400 ,0,0,0.,24.0,0.,24.0
1979-08-07 08:35:30.400 ,0,1,0.,24.0,0.,24.0
1979-08-07 08:35:54.400 ,0,0,0.,24.0,0.,24.0
1979-08-07 08:36:18.400 ,1,1,0.,24.0,0.,24.0
1979-08-07 08:36:42.400 ,1,0,0.,24.0,0.,24.0
1979-08-07 08:37:06.400 ,2,1,0.,24.0,0.,24.0
1979-08-07 08:37:30.400 ,2,0,0.,24.0,0.,24.0
1979-08-07 08:37:54.400 ,3,1,0.,24.0,0.,24.0
1979-08-07 08:38:18.400 ,3,0,0.,24.0,0.,24.0
1979-08-07 08:38:42.400 ,4,1,0.,24.0,0.,24.0
1979-08-07 08:39:06.400 ,4,0,0.,24.0,0.,24.0
1979-08-07 08:39:30.400 ,5,1,0.,24.0,0.,24.0
1979-08-07 08:39:54.400 ,5,0,0.,24.0,0.,24.0
1979-08-07 08:40:18.400 ,6,1,0.,24.0,0.,24.0
1979-08-07 08:40:42.400 ,6,0,0.,24.0,0.,24.0
1979-08-07 08:41:06.400 ,7,1,0.,24.0,0.,24.0
1979-08-07 08:41:30.400 ,7,0,0.,24.0,0.,24.0
1979-08-07 08:41:54.400 ,7,1,0.,24.0,0.,24.0
1979-08-07 08:42:18.400 ,7,0,0.,24.0,0.,24.0
1979-08-07 08:42:42.400 ,6,1,0.,24.0,0.,24.0
1979-08-07 08:43:06.400 ,6,0,0.,24.0,0.,24.0
1979-08-07 08:43:30.400 ,5,1,0.,24.0,0.,24.0
1979-08-07 08:43:54.400 ,5,0,0.,24.0,0.,24.0
1979-08-07 08:44:18.400 ,4,1,0.,24.0,0.,24.0
1979-08-07 08:44:42.400 ,4,0,0.,24.0,0.,24.0
1979-08-07 08:45:06.400 ,3,1,0.,24.0,0.,24.0
1979-08-07 08:45:30.400 ,3,0,0.,24.0,0.,24.0
1979-08-07 08:45:54.400 ,2,1,0.,24.0,0.,24.0
1979-08-07 08:46:18.400 ,2,0,0.,24.0,0.,24.0
1979-08-07 08:46:42.400 ,1,1,0.,24.0,0.,24.0
1979-08-07 08:47:06.400 ,1,0,0.,24.0,0.,24.0
1979-08-07 08:47:30.400 ,0,1,0.,24.0,0.,24.0
1979-08-07 08:47:54.400 ,0,0,0.,24.0,0.,24.0
1979-08-07 08:48:18.400 ,0,1,0.,24.0,0.,24.0
1979-08-07 08:48:42.400 ,0,0,0.,24.0,0.,24.0
1979-08-07 08:49:06.400 ,1,1,0.,24.0,0.,24.0
1979-08-07 08:49:30.400 ,1,0,0.,24.0,0.,24.0
1979-08-07 08:49:54.400 ,2,1,0.,24.0,0.,24.0
1979-08-07 08:50:18.400 ,2,0,0.,24.0,0.,24.0
1979-08-07 08:50:42.400 ,3,1,0.,24.0,0.,24.0
1979-08-07 08:51:06.400 ,3,0,0.,24.0,0.,24.0
1979-08-07 08:51:30.400 ,4,1,0.,24.0,0.,24.0
1979-08-07 08:51:54.400 ,4,0,0.,24.0,0.,24.0
1979-08-07 08:52:18.400 ,5,1,0.,24.0,0.,24.0
1979-08-07 08:52:42.400 ,5,0,0.,24.0,0.,24.0
1979-08-07 08:52:42.400 ,5,0,0.,24.0,0.,24.0
1979-08-07 08:53:06.400 ,6,1,0.,24.0,0.,24.0
1979-08-07 08:53:30.400 ,6,0,0.,24.0,0.,24.0
1979-08-07 08:53:54.400 ,7,1,0.,24.0,0.,24.0
1979-08-07 08:54:18.400 ,7,0,0.,24.0,0.,24.0
1979-08-07 08:54:42.400 ,7,1,0.,24.0,0.,24.0
1979-08-07 08:55:06.400 ,7,0,0.,24.0,0.,24.0
1979-08-07 08:55:30.400 ,6,1,0.,24.0,0.,24.0
1979-08-07 08:55:54.400 ,6,0,0.,24.0,0.,24.0
1979-08-07 08:56:18.400 ,5,1,0.,24.0,0.,24.0
1979-08-07 08:56:42.400 ,5,0,0.,24.0,0.,24.0
1979-08-07 08:57:06.400 ,4,1,0.,24.0,0.,24.0
1979-08-07 08:57:30.400 ,4,0,0.,24.0,0.,24.0
1979-08-07 08:57:54.400 ,3,1,0.,24.0,0.,24.0
1979-08-07 08:58:18.400 ,3,0,0.,24.0,0.,24.0
1979-08-07 08:58:42.400 ,2,1,0.,24.0,0.,24.0
1979-08-07 08:59:06.400 ,2,0,0.,24.0,0.,24.0
1979-08-07 08:59:30.400 ,1,1,0.,24.0,0.,24.0
1979-08-07 08:59:54.400 ,1,0,0.,24.0,0.,24.0
1979-08-07 09:00:18.400 ,0,1,0.,24.0,0.,24.0
